• En España
  • Lista de países
  • Para 7 días
  • Temperatura del agua
  • Mapa Satelital
  • El tiempo en el mapa
  • Informadores
  • user-avatar
    Iniciar sesión

    Tiempo cada hora Brisbane

    Hoy, 22 Octubre, Domingo

    Tiempo Temperatura Precipitaciones Viento Presión Humedad
    00:00 +14°C° 0 mm 4 mps 759 mmHg 88%
    01:00 +14°C° 0 mm 3 mps 758 mmHg 88%
    02:00 +14°C° 0 mm 3 mps 758 mmHg 88%
    03:00 +13°C° 0 mm 3 mps 758 mmHg 87%
    04:00 +13°C° 0 mm 4 mps 757 mmHg 87%
    05:00 +14°C° 0 mm 4 mps 758 mmHg 84%
    06:00 +15°C° 0 mm 4 mps 758 mmHg 81%
    07:00 +17°C° 0 mm 3 mps 758 mmHg 78%
    08:00 +19°C° 0 mm 3 mps 758 mmHg 68%
    09:00 +22°C° 0 mm 3 mps 758 mmHg 58%
    10:00 +25°C° 0 mm 3 mps 758 mmHg 46%
    11:00 +26°C° 0 mm 2 mps 757 mmHg 42%
    12:00 +28°C° 0 mm 2 mps 757 mmHg 38%
    13:00 +29°C° 0 mm 2 mps 756 mmHg 34%
    14:00 +28°C° 0 mm 3 mps 756 mmHg 40%
    15:00 +27°C° 0 mm 3 mps 756 mmHg 45%
    16:00 +25°C° 0 mm 4 mps 756 mmHg 55%
    17:00 +22°C° 0,1 mm 4 mps 757 mmHg 62%
    18:00 +21°C° 0,1 mm 4 mps 757 mmHg 70%
    19:00 +19°C° 0,1 mm 4 mps 758 mmHg 77%
    20:00 +19°C° 0,3 mm 3 mps 758 mmHg 80%
    21:00 +18°C° 0,3 mm 3 mps 758 mmHg 82%
    22:00 +18°C° 0,3 mm 2 mps 759 mmHg 85%
    23:00 +18°C° 0,6 mm 2 mps 759 mmHg 86%

    Mañana, 23 Octubre, Lunes

    Tiempo Temperatura Precipitaciones Viento Presión Humedad
    00:00 +17°C° 0,6 mm 2 mps 759 mmHg 87%
    01:00 +17°C° 0,6 mm 2 mps 759 mmHg 88%
    02:00 +16°C° 0,6 mm 1 mps 759 mmHg 88%
    03:00 +16°C° 0,6 mm 1 mps 759 mmHg 89%
    04:00 +16°C° 0,6 mm 1 mps 759 mmHg 90%
    05:00 +18°C° 0,4 mm 1 mps 759 mmHg 86%
    06:00 +19°C° 0,4 mm 1 mps 759 mmHg 82%
    07:00 +20°C° 0,4 mm 1 mps 760 mmHg 78%
    08:00 +22°C° 0,5 mm 1 mps 760 mmHg 72%
    09:00 +23°C° 0,5 mm 2 mps 760 mmHg 66%
    10:00 +25°C° 0,5 mm 2 mps 760 mmHg 60%
    11:00 +25°C° 0,5 mm 2 mps 760 mmHg 59%
    12:00 +25°C° 0,5 mm 2 mps 759 mmHg 58%
    13:00 +25°C° 0,5 mm 2 mps 759 mmHg 58%
    14:00 +25°C° 0,9 mm 2 mps 759 mmHg 59%
    15:00 +24°C° 0,9 mm 2 mps 759 mmHg 61%
    16:00 +24°C° 0,9 mm 2 mps 759 mmHg 63%
    17:00 +21°C° 1,5 mm 2 mps 760 mmHg 70%
    18:00 +20°C° 1,5 mm 2 mps 760 mmHg 76%
    19:00 +18°C° 1,5 mm 2 mps 761 mmHg 83%
    20:00 +18°C° 0,6 mm 2 mps 762 mmHg 84%
    21:00 +18°C° 0,6 mm 2 mps 762 mmHg 85%
    22:00 +18°C° 0,6 mm 1 mps 763 mmHg 86%
    23:00 +18°C° 0,8 mm 1 mps 763 mmHg 87%

    Pasado mañana, 24 Octubre, Martes

    Tiempo Temperatura Precipitaciones Viento Presión Humedad
    00:00 +18°C° 0,8 mm 1 mps 762 mmHg 87%
    01:00 +18°C° 0,8 mm 1 mps 762 mmHg 87%
    02:00 +18°C° 0,2 mm 1 mps 762 mmHg 88%
    03:00 +16°C° 0,2 mm 1 mps 762 mmHg 89%
    04:00 +16°C° 0,2 mm 1 mps 762 mmHg 89%
    05:00 +18°C° 0,2 mm 1 mps 763 mmHg 86%
    06:00 +19°C° 0,2 mm 1 mps 763 mmHg 83%
    07:00 +20°C° 0,2 mm 1 mps 764 mmHg 80%
    08:00 +21°C° 0 mm 2 mps 764 mmHg 71%
    09:00 +24°C° 0 mm 2 mps 764 mmHg 61%
    10:00 +26°C° 0 mm 2 mps 764 mmHg 52%
    11:00 +26°C° 0 mm 3 mps 763 mmHg 52%
    12:00 +27°C° 0 mm 3 mps 763 mmHg 51%
    13:00 +27°C° 0 mm 3 mps 762 mmHg 50%
    14:00 +26°C° 0 mm 3 mps 762 mmHg 52%
    15:00 +26°C° 0 mm 3 mps 762 mmHg 54%
    16:00 +26°C° 0 mm 3 mps 762 mmHg 55%
    17:00 +24°C° 0 mm 3 mps 762 mmHg 63%
    18:00 +21°C° 0 mm 3 mps 762 mmHg 70%
    19:00 +20°C° 0 mm 3 mps 763 mmHg 77%
    20:00 +19°C° 0 mm 2 mps 763 mmHg 80%
    21:00 +19°C° 0 mm 2 mps 764 mmHg 82%
    22:00 +18°C° 0 mm 2 mps 764 mmHg 85%
    23:00 +18°C° 0 mm 2 mps 764 mmHg 87%

    25 Octubre, Miércoles

    Tiempo Temperatura Precipitaciones Viento Presión Humedad
    00:00 +18°C° 0 mm 2 mps 763 mmHg 88%
    01:00 +17°C° 0 mm 2 mps 763 mmHg 89%
    02:00 +17°C° 0 mm 2 mps 763 mmHg 90%
    03:00 +17°C° 0 mm 2 mps 763 mmHg 91%
    04:00 +17°C° 0 mm 2 mps 762 mmHg 92%
    05:00 +18°C° 0 mm 2 mps 763 mmHg 87%
    06:00 +19°C° 0 mm 2 mps 763 mmHg 82%
    07:00 +20°C° 0 mm 2 mps 763 mmHg 77%
    08:00 +24°C° 0 mm 2 mps 763 mmHg 68%
    09:00 +26°C° 0 mm 2 mps 763 mmHg 58%
    10:00 +28°C° 0 mm 2 mps 763 mmHg 48%
    11:00 +29°C° 0 mm 3 mps 762 mmHg 45%
    12:00 +30°C° 0 mm 3 mps 761 mmHg 42%
    13:00 +32°C° 0 mm 4 mps 760 mmHg 39%
    14:00 +30°C° 0 mm 4 mps 760 mmHg 42%
    15:00 +30°C° 0 mm 4 mps 759 mmHg 45%
    16:00 +29°C° 0 mm 5 mps 759 mmHg 47%
    17:00 +27°C° 0 mm 5 mps 759 mmHg 56%
    18:00 +25°C° 0 mm 5 mps 760 mmHg 66%
    19:00 +22°C° 0 mm 5 mps 760 mmHg 75%
    20:00 +22°C° 0 mm 5 mps 760 mmHg 77%
    21:00 +21°C° 0 mm 5 mps 760 mmHg 80%
    22:00 +21°C° 0 mm 4 mps 760 mmHg 83%
    23:00 +20°C° 0 mm 4 mps 760 mmHg 83%

    26 Octubre, Jueves

    Tiempo Temperatura Precipitaciones Viento Presión Humedad
    00:00 +20°C° 0 mm 4 mps 759 mmHg 83%
    01:00 +20°C° 0 mm 4 mps 759 mmHg 83%
    02:00 +20°C° 0 mm 4 mps 758 mmHg 83%
    03:00 +19°C° 0 mm 4 mps 758 mmHg 84%
    04:00 +19°C° 0 mm 4 mps 758 mmHg 84%
    05:00 +20°C° 0 mm 4 mps 758 mmHg 79%
    06:00 +21°C° 0 mm 4 mps 758 mmHg 74%
    07:00 +23°C° 0 mm 5 mps 758 mmHg 69%
    08:00 +26°C° 0 mm 5 mps 758 mmHg 62%
    09:00 +28°C° 0 mm 5 mps 758 mmHg 55%
    10:00 +30°C° 0 mm 5 mps 757 mmHg 47%
    11:00 +33°C° 0 mm 5 mps 756 mmHg 43%
    12:00 +34°C° 0 mm 6 mps 755 mmHg 39%
    13:00 +36°C° 0 mm 6 mps 754 mmHg 35%
    14:00 +35°C° 0 mm 6 mps 754 mmHg 38%
    15:00 +34°C° 0 mm 5 mps 754 mmHg 41%
    16:00 +32°C° 0 mm 5 mps 753 mmHg 44%
    17:00 +29°C° 2,8 mm 5 mps 753 mmHg 55%
    18:00 +27°C° 2,8 mm 4 mps 754 mmHg 65%
    19:00 +25°C° 2,8 mm 4 mps 754 mmHg 75%
    20:00 +23°C° 0,1 mm 4 mps 754 mmHg 78%
    21:00 +22°C° 0,1 mm 4 mps 755 mmHg 81%
    22:00 +22°C° 0,1 mm 4 mps 755 mmHg 84%
    23:00 +21°C° 0 mm 3 mps 755 mmHg 86%

    27 Octubre, Viernes

    Tiempo Temperatura Precipitaciones Viento Presión Humedad
    00:00 +21°C° 0 mm 3 mps 755 mmHg 87%
    01:00 +21°C° 0 mm 3 mps 755 mmHg 89%
    02:00 +20°C° 0 mm 3 mps 754 mmHg 86%
    03:00 +20°C° 0 mm 3 mps 754 mmHg 84%
    04:00 +19°C° 0 mm 3 mps 754 mmHg 82%
    05:00 +20°C° 0 mm 3 mps 755 mmHg 75%
    06:00 +21°C° 0 mm 3 mps 756 mmHg 68%
    07:00 +22°C° 0 mm 3 mps 756 mmHg 61%
    08:00 +26°C° 0 mm 3 mps 756 mmHg 49%
    09:00 +29°C° 0 mm 2 mps 756 mmHg 37%
    10:00 +32°C° 0 mm 2 mps 756 mmHg 26%
    11:00 +34°C° 0 mm 3 mps 755 mmHg 26%
    12:00 +34°C° 0 mm 3 mps 755 mmHg 27%
    13:00 +34°C° 0 mm 4 mps 755 mmHg 27%
    14:00 +33°C° 0 mm 4 mps 755 mmHg 35%
    15:00 +32°C° 0 mm 4 mps 755 mmHg 43%
    16:00 +29°C° 0 mm 5 mps 755 mmHg 51%
    17:00 +27°C° 0 mm 5 mps 755 mmHg 61%
    18:00 +25°C° 0 mm 4 mps 756 mmHg 70%
    19:00 +22°C° 0 mm 4 mps 757 mmHg 79%
    20:00 +22°C° 0 mm 4 mps 758 mmHg 80%
    21:00 +21°C° 0 mm 3 mps 758 mmHg 81%
    22:00 +21°C° 0 mm 3 mps 759 mmHg 83%
    23:00 +21°C° 0 mm 2 mps 759 mmHg 84%
    Mostrar más